Wind_Speed
18 19 19 20 19 19 19 19 19 19 19 18 13 10 10 9 9 3 6 2 6 9 5 4 5 4 4 3 3 1 2 8 10 8 7 6 4 6 3 10 8 5 8 18 21
19 19 20 20 20 20 20 19 19 18 18 17 12 11 10 12 5 8 5 9 11 9 5 6 5 3 4 3 2 3 4 9 6 7 8 6 7 6 5 8 9 13 17 21 22
20 21 20 20 21 21 20 20 20 19 17 16 11 11 12 7 6 5 8 13 12 9 5 4 4 6 4 3 3 3 5 4 6 10 9 9 8 5 4 5 8 15 17 17 19
21 22 22 20 21 22 21 21 20 19 17 15 10 11 10 2 6 3 9 17 10 6 6 4 5 4 3 3 2 2 5 4 8 8 9 10 7 11 12 9 11 18 19 17 15
22 22 22 23 22 22 21 21 20 19 17 13 8 10 2 6 6 3 12 17 11 6 6 2 2 2 2 3 4 1 4 5 9 9 10 9 8 11 13 13 15 18 16 15 13
23 23 24 23 23 22 21 20 21 19 15 8 5 7 5 5 2 2 14 12 8 7 2 2 4 3 4 2 4 5 9 11 9 10 9 11 11 4 11 13 15 14 14 13 12
25 24 25 25 24 23 21 19 20 17 11 3 3 3 6 7 3 4 13 9 5 5 1 3 3 5 1 7 6 10 11 10 7 8 6 9 6 12 14 15 15 14 14 13 12
26 26 27 26 25 23 20 18 17 10 2 1 3 3 0 4 3 4 10 9 6 5 2 2 3 1 3 6 7 5 8 7 7 8 7 6 9 11 12 13 14 13 11 10 11
27 28 28 27 26 23 19 17 8 2 1 1 2 5 7 2 5 6 11 9 9 6 3 2 3 2 7 11 8 7 2 1 6 7 5 8 6 11 12 11 11 11 10 9 9
28 29 29 29 27 23 18 9 2 1 0 2 5 5 5 5 5 6 9 8 9 9 6 5 4 7 7 9 5 5 3 3 6 7 8 7 3 10 12 11 10 9 8 7 6
29 30 31 31 27 20 11 4 5 5 7 7 3 2 4 5 4 9 11 12 10 11 12 5 10 6 7 7 6 1 3 6 1 1 6 7 4 9 10 11 11 9 7 7 7
30 32 32 32 26 10 4 4 5 5 6 7 9 6 6 1 8 11 12 12 13 14 13 8 15 9 2 1 3 3 8 3 2 3 7 2 7 7 9 11 10 10 8 8 7
31 33 35 32 16 2 5 0 1 6 6 6 6 7 8 11 9 15 16 13 16 18 15 19 10 11 2 5 6 5 6 0 5 5 5 4 13 10 8 7 8 8 8 7 6
32 34 37 30 2 6 2 3 7 5 5 10 8 8 9 8 9 10 19 13 8 17 18 18 10 8 9 11 5 10 5 4 5 8 1 5 6 11 12 9 10 10 10 8 8
33 38 35 20 10 4 2 4 4 4 5 7 7 5 13 13 17 10 11 10 16 15 9 17 13 12 15 14 3 5 5 3 6 6 6 10 7 7 10 9 9 7 8 7 6
35 39 30 5 5 5 3 6 4 6 4 7 7 13 16 14 7 12 13 8 4 10 14 19 3 9 14 4 5 3 3 5 6 4 9 6 6 9 5 8 9 9 10 9 8
41 32 12 5 1 1 3 5 6 6 3 8 11 16 19 15 11 17 15 16 12 13 12 14 14 11 9 12 6 9 12 8 7 7 5 5 6 8 11 13 12 10 11 9 10
38 12 4 5 4 2 6 7 7 2 3 3 5 16 17 17 14 10 14 16 17 14 9 12 17 19 14 16 11 15 15 10 5 8 3 5 6 6 11 12 11 8 7 8 10
22 1 1 1 5 5 7 9 2 3 2 1 8 13 16 14 8 12 16 15 16 14 10 13 11 18 8 8 10 10 9 7 11 7 9 4 4 12 13 13 12 12 12 13 12
9 3 5 2 7 7 8 11 2 2 5 3 9 14 15 17 13 13 14 13 13 18 14 7 10 12 9 8 4 8 4 7 8 5 7 4 4 5 12 14 15 14 15 15 13
3 4 3 4 2 6 10 8 5 6 5 4 2 8 10 17 18 15 12 5 17 17 16 9 11 10 10 10 5 5 10 9 6 5 8 7 3 6 5 13 17 16 15 16 15
5 3 3 1 6 3 9 4 1 9 6 7 6 9 8 13 16 12 11 4 14 16 16 16 8 11 13 7 3 8 10 12 9 9 4 8 8 4 4 7 16 16 17 15 14
4 2 3 3 5 7 4 9 6 9 8 4 6 5 6 9 11 13 11 7 11 15 14 10 8 10 10 8 5 8 10 10 7 7 5 8 5 4 6 8 14 18 16 16 16
4 4 4 4 2 5 3 6 7 6 10 8 9 5 7 8 11 12 9 6 9 11 7 9 15 15 12 10 4 7 8 10 12 9 1 7 8 1 6 9 14 17 18 18 16
2 3 4 3 6 5 4 3 6 5 5 6 6 12 10 8 11 8 12 10 7 6 7 9 12 14 16 2 4 10 7 10 12 11 8 10 9 8 1 10 15 16 18 18 17
4 4 1 3 3 6 5 2 5 3 4 6 8 4 9 9 8 13 13 10 8 9 12 13 7 9 13 8 10 11 10 12 14 9 9 11 11 3 2 7 15 17 19 19 18
4 1 4 3 2 5 1 3 4 8 3 6 7 9 8 1 4 2 3 5 8 11 12 12 7 7 13 8 9 11 15 15 14 10 10 10 5 4 3 8 14 18 19 19 18
Wind_Direction
5 3 359 356 355 354 352 351 346 344 346 348 344 342 338 329 318 288 231 176 173 169 173 204 215 239 254 205 243 309 196 71 63 56 110 135 92 62 92 126 67 42 78 125 146
4 2 357 355 352 350 349 347 345 345 344 345 339 338 334 329 295 240 215 176 173 182 196 222 231 230 202 194 164 291 52 47 21 83 103 104 59 97 120 127 111 103 104 128 146
2 357 354 352 351 349 347 344 342 339 338 341 334 334 331 333 245 102 173 161 164 174 240 247 271 233 205 208 138 97 26 30 99 96 107 105 86 78 147 115 134 139 133 144 155
359 356 351 349 348 345 341 340 336 334 336 334 329 334 330 252 157 105 180 181 179 200 239 249 215 208 197 152 109 199 35 67 116 128 124 88 101 74 61 69 116 141 143 149 162
358 354 351 346 343 342 339 338 335 331 328 324 323 334 323 214 81 12 177 182 189 219 246 307 76 241 130 112 157 356 92 94 135 135 108 118 84 98 88 99 122 138 153 154 163
360 354 349 343 340 338 334 332 330 326 322 310 314 329 264 174 27 87 158 166 193 218 196 330 28 348 77 79 10 94 101 106 133 125 139 119 123 131 115 128 132 148 160 167 171
359 353 347 343 338 334 329 329 327 322 320 279 301 332 258 74 102 122 168 180 203 234 221 49 348 278 171 123 119 131 117 117 126 148 146 141 151 110 143 145 153 164 170 171 182
355 352 348 345 338 331 325 325 323 321 316 243 325 280 52 139 158 175 181 195 208 223 305 333 321 32 324 128 148 166 182 180 156 180 154 234 110 142 158 164 165 171 177 187 192
352 350 348 346 338 329 324 319 317 316 103 74 290 271 143 206 214 180 187 194 182 188 208 237 242 34 165 198 176 206 142 274 169 199 167 230 93 162 177 182 171 179 189 200 209
349 348 347 347 339 328 323 319 174 146 280 261 264 243 188 158 138 161 180 191 179 166 170 210 215 182 184 225 176 116 224 229 273 179 223 218 205 169 187 192 180 199 200 226 243
347 346 345 345 339 329 325 274 213 185 209 283 96 359 131 154 184 193 175 180 184 207 213 193 237 193 50 17 51 6 304 291 164 129 246 244 271 187 180 206 200 206 206 212 232
346 344 342 343 337 332 351 279 42 357 285 215 245 259 239 206 175 178 183 192 191 202 215 193 238 111 109 71 276 264 271 172 121 233 248 191 239 200 185 210 206 195 203 234 236
343 342 340 341 340 30 302 318 60 344 254 171 207 225 193 198 202 174 195 207 201 212 205 228 212 128 224 233 280 232 337 201 317 169 226 246 236 202 178 203 199 182 203 220 226
340 340 337 340 5 330 203 181 306 281 256 150 195 191 179 214 196 166 204 196 211 219 213 228 176 198 250 267 275 277 21 277 176 208 262 218 321 182 155 180 194 178 198 197 176
339 337 332 333 297 247 100 307 307 217 239 129 148 125 158 195 133 181 181 204 222 216 215 219 219 224 243 256 252 14 331 240 193 230 265 175 264 105 153 189 162 165 168 168 174
336 333 324 331 235 244 271 311 213 228 214 143 148 176 173 197 179 142 182 229 279 216 222 246 189 236 249 222 214 130 173 163 194 248 247 93 283 305 113 156 136 167 159 154 147
334 329 301 212 41 274 272 205 220 249 140 151 177 175 190 181 159 172 183 192 189 198 202 211 216 210 219 207 193 211 206 206 220 208 275 74 269 292 120 134 141 135 171 187 170
334 330 303 208 233 277 208 218 239 16 221 120 198 183 198 181 188 190 192 200 213 221 195 204 198 203 195 230 213 207 239 274 245 272 359 156 274 68 116 144 153 130 132 153 156
342 358 183 291 228 210 222 215 237 197 36 262 171 191 197 185 215 201 208 210 190 217 230 197 202 164 188 197 235 173 228 288 285 242 270 284 254 196 140 153 158 149 143 147 149
333 243 31 298 166 211 224 237 228 272 331 261 215 199 192 192 200 199 185 214 207 198 238 210 156 172 152 164 166 276 15 219 213 264 260 165 262 329 159 168 166 163 147 146 144
257 220 92 112 223 211 220 219 247 236 286 299 251 200 230 184 199 191 191 187 204 189 208 233 244 147 180 206 205 172 222 230 301 296 309 274 58 55 91 169 169 170 153 154 147
286 211 147 247 202 227 233 239 358 258 229 268 280 267 242 188 201 200 201 251 188 174 190 215 237 168 196 101 335 273 279 208 231 196 239 312 308 104 89 165 165 163 158 154 153
322 42 184 275 228 204 186 242 251 263 243 245 261 244 204 208 202 211 212 102 173 188 199 176 228 194 180 179 187 228 206 251 285 307 262 298 52 86 112 157 160 159 160 156 158
283 201 157 226 305 296 243 236 245 198 261 262 272 254 202 202 214 194 210 160 178 207 38 232 225 233 208 209 169 190 206 218 249 273 165 269 330 84 146 172 169 164 164 163 167
325 65 2 192 192 275 266 318 269 250 213 236 235 244 215 195 184 202 186 148 173 145 202 226 229 223 247 284 260 269 223 213 236 267 278 339 312 331 60 184 182 172 169 167 171
335 333 310 288 280 254 160 170 302 318 262 192 242 2 249 249 212 179 181 186 176 174 198 213 221 198 216 219 238 237 236 230 227 244 259 274 281 63 82 175 177 181 178 178 177
18 285 284 137 246 247 113 6 340 339 224 251 307 290 241 154 319 10 123 129 146 167 184 187 198 204 226 201 226 241 233 230 218 229 250 269 36 126 167 199 192 184 185 188 184
Height
810 808 805 802 799 796 793 790 788 784 781 778 776 774 772 770 769 769 766 764 764 764 764 765 764 761 760 755 754 753 769 779 776 775 781 769 774 773 773 780 785 788 781 792 806
811 807 804 802 799 796 793 790 786 784 781 777 775 773 771 769 769 766 764 762 763 764 764 762 758 757 754 753 754 759 767 774 762 762 771 770 773 777 783 786 793 793 795 802 808
810 807 803 801 798 795 792 789 785 782 779 777 774 772 770 768 767 757 761 762 763 763 764 762 759 755 755 751 755 760 773 764 764 759 762 773 775 774 781 787 786 795 798 803 808
810 806 803 799 796 793 790 787 784 780 778 776 773 771 769 770 771 759 760 761 763 764 764 760 755 756 756 760 754 767 761 761 763 762 766 776 773 780 782 786 782 789 796 802 806
809 806 802 798 794 791 788 785 782 779 776 774 772 770 769 762 756 758 758 761 763 764 761 756 754 756 760 758 758 763 764 762 762 764 767 772 780 783 789 786 788 792 798 801 803
808 805 801 797 793 789 785 783 780 777 774 772 771 770 769 761 759 758 760 762 763 762 759 756 755 753 756 759 761 760 763 766 766 770 771 781 783 779 791 789 793 796 798 799 802
807 803 799 795 791 786 782 780 777 774 771 771 770 769 765 759 760 760 761 762 762 762 756 758 757 753 753 760 757 759 777 773 773 774 780 775 791 789 787 788 794 795 795 797 800
806 802 797 792 788 784 779 777 774 772 770 770 770 771 756 759 760 760 762 762 762 762 760 760 758 752 753 754 760 767 767 786 778 776 780 781 801 792 786 789 794 795 797 799 800
805 800 795 790 785 780 776 773 771 771 770 770 771 768 757 758 758 757 759 758 760 760 760 760 755 755 754 764 773 770 784 787 787 772 779 783 794 789 785 788 794 794 796 799 802
803 798 793 788 782 778 774 770 770 770 770 771 771 769 757 754 754 756 759 758 756 757 758 756 753 759 757 765 791 790 788 784 786 778 779 784 786 787 786 789 791 793 793 796 799
801 795 790 785 780 775 772 772 771 769 767 751 750 755 753 754 756 755 756 756 754 755 767 759 769 773 772 768 769 780 783 787 780 778 783 782 783 785 785 786 789 792 794 798 799
799 793 787 782 777 773 772 765 767 770 762 752 754 756 755 755 755 752 755 756 758 770 758 772 778 765 769 771 774 776 780 785 785 781 784 784 785 780 785 784 782 790 797 799 796
796 791 784 779 774 773 774 770 770 770 762 750 749 749 750 754 750 751 750 749 758 766 769 773 761 762 773 772 777 770 779 783 786 786 781 783 785 785 784 784 784 788 792 792 791
794 788 782 777 776 774 770 771 771 770 764 754 751 745 748 744 754 742 746 750 758 765 763 765 754 769 774 776 772 780 771 777 784 788 791 781 800 778 780 787 786 785 790 788 791
791 785 779 777 776 772 772 771 770 769 781 749 748 742 737 746 739 751 746 749 760 763 763 771 765 774 780 771 766 777 769 773 778 781 784 785 795 781 784 787 787 789 786 788 790
786 781 774 775 775 771 770 771 771 773 779 752 740 747 750 741 743 745 751 747 744 758 762 760 748 757 764 760 765 768 777 778 775 777 798 778 791 779 771 775 792 791 789 791 793
781 774 770 771 768 769 770 768 772 773 744 754 749 743 743 749 749 749 757 762 769 785 782 768 768 757 758 772 767 774 778 795 803 799 799 778 790 774 773 775 784 788 790 790 794
774 768 767 767 768 769 769 765 782 755 748 737 739 740 749 741 746 749 754 762 752 756 763 783 792 762 756 763 767 772 766 784 817 804 787 787 794 774 770 775 780 782 787 790 794
770 769 769 768 767 768 763 769 757 752 744 746 743 751 750 742 744 751 753 754 751 752 771 773 769 744 752 749 755 767 783 752 774 772 791 774 768 752 774 779 783 784 790 792 793
770 767 765 765 766 767 761 762 754 747 746 744 749 739 752 749 754 753 753 741 747 745 738 752 772 751 758 753 758 760 757 779 771 809 813 780 784 777 779 779 782 784 786 791 794
770 757 767 766 768 760 761 751 751 741 746 749 743 741 735 742 744 749 747 741 735 743 742 746 751 768 755 758 756 767 769 765 758 772 793 794 774 757 763 763 776 778 786 788 795
767 755 765 766 761 754 753 751 764 746 740 745 742 739 736 732 741 742 745 736 727 732 758 746 742 765 760 749 751 750 753 750 775 784 771 779 777 752 756 754 760 774 783 787 796
762 758 763 763 758 756 752 752 750 746 741 740 740 733 728 735 746 736 733 729 731 735 743 742 755 774 773 765 757 759 751 748 744 748 770 786 773 755 758 759 758 770 780 789 795
767 758 757 756 754 753 754 749 751 739 743 739 736 730 733 736 727 736 736 737 734 732 746 738 741 755 767 758 742 762 757 753 751 762 763 766 763 749 759 763 764 769 779 786 794
768 765 768 755 755 753 754 753 752 748 740 736 735 733 731 736 733 735 728 739 740 750 743 737 753 746 739 750 750 749 751 755 762 752 771 757 765 751 752 757 761 765 775 784 791
774 774 766 759 759 758 765 750 753 747 747 735 740 731 727 729 722 731 726 730 736 743 743 733 753 749 754 751 755 757 748 748 751 752 758 755 759 742 749 749 756 762 772 780 786
784 782 777 768 757 756 749 752 751 748 739 739 741 739 728 724 721 704 706 709 717 734 739 741 744 760 764 752 756 771 747 745 743 743 747 762 747 743 753 757 755 758 766 774 780